Date,TemperatureHighF,TemperatureAvgF,TemperatureLowF,DewpointHighF,DewpointAvgF,DewpointLowF,HumidityHigh,HumidityAvg,HumidityLow,PressureMaxIn,PressureMinIn,WindSpeedMaxMPH,WindSpeedAvgMPH,GustSpeedMaxMPH,PrecipitationSumIn
2013-9-1,87,73,64,84,73,64,98,98,88,29.89,29.79,6,2,0,0.01
2013-9-2,89,75,65,84,73,64,98,93,70,29.89,29.78,7,2,0,0.00
2013-9-3,88,78,60,82,72,60,98,85,59,29.99,29.84,9,3,0,0.00
2013-9-4,89,67,52,74,62,52,98,87,49,30.11,30.00,8,1,0,0.00
2013-9-5,88,68,53,75,63,53,98,86,50,30.14,30.05,9,2,0,0.00
2013-9-6,83,66,56,72,63,55,98,91,64,30.20,30.09,7,1,0,0.00
2013-9-7,88,67,51,74,62,50,98,87,47,30.14,29.95,7,1,0,0.00
2013-9-8,87,70,56,80,67,55,98,93,71,30.01,29.91,7,2,0,0.00
2013-9-9,83,69,59,82,68,58,98,98,98,30.17,30.02,6,1,0,0.00
2013-9-10,90,73,62,85,72,61,98,97,76,30.24,30.14,7,2,0,0.00
2013-9-11,90,75,65,87,74,64,98,96,80,30.21,30.06,8,2,0,0.00
2013-9-12,90,74,65,86,73,64,98,95,69,30.07,29.82,6,2,0,0.00
2013-9-13,76,63,52,68,60,51,98,92,54,29.96,29.79,5,2,0,0.00
2013-9-14,79,57,42,63,52,41,98,85,51,30.14,29.95,8,2,0,0.00
2013-9-15,79,59,41,72,56,40,98,90,63,30.22,30.08,6,1,0,0.00
2013-9-16,79,63,50,75,62,49,98,97,83,30.23,30.09,6,2,0,0.00
2013-9-17,74,56,41,67,54,41,98,94,68,30.35,30.23,7,1,0,0.00
2013-9-18,73,58,44,70,57,43,98,97,84,30.30,30.15,5,1,0,0.00
2013-9-19,76,65,59,75,64,58,98,98,98,30.17,30.06,5,1,0,0.00
2013-9-20,75,67,64,74,66,64,98,98,98,30.07,29.94,5,1,0,1.21
2013-9-21,72,65,57,71,65,56,98,98,98,29.94,29.68,5,1,0,1.06
2013-9-22,75,61,49,70,59,49,98,93,72,29.93,29.76,8,2,0,0.01
2013-9-23,76,58,46,74,57,46,98,96,78,30.05,29.93,6,1,0,0.00
2013-9-24,79,62,52,77,61,52,98,97,85,30.08,29.90,7,1,0,0.00
2013-9-25,69,60,53,68,60,53,98,98,98,29.95,29.85,4,1,0,0.08
2013-9-26,79,64,58,72,62,57,98,94,75,30.05,29.89,6,1,0,0.00
2013-9-27,77,60,47,70,58,46,98,92,68,30.20,30.06,5,1,0,0.00
2013-9-28,71,59,46,70,59,46,98,98,98,30.26,30.18,9,1,0,0.00
2013-9-29,75,57,43,69,55,43,98,94,77,30.19,30.02,5,1,0,0.00
2013-9-30,74,62,53,71,61,53,98,97,79,30.08,29.97,5,1,0,0.00